Location: Killam
(52.7910°N, 111.8608°W)
Time: 23:18:39
(UTC+00:00)

Gurwin Techsat 1B - Visible Passes

Search period start: 14 March 2026 00:00
Search period end: 24 March 2026 00:00
Orbit: 809 x 812 km, 99.0° (Epoch: 14 March)

Date Brightness Start Highest point End Pass type
(mag) Time Alt. Az. Time Alt. Az. Time Alt. Az.
14 Mar 11.4 11:15:38 10° NE 11:18:51 16° E 11:22:03 10° SE visible
14 Mar 8.7 12:54:09 10° NNE 12:59:30 86° ESE 13:04:49 10° SSW visible
15 Mar 11.9 10:54:36 10° E 10:54:52 10° E 10:55:07 10° E visible
15 Mar 9.3 12:30:37 10° NNE 12:35:52 58° ESE 12:41:06 10° S visible
16 Mar 10.1 12:07:11 10° NNE 12:12:10 39° E 12:17:06 10° SSE visible
17 Mar 10.8 11:43:56 10° NE 11:48:22 26° E 11:52:46 10° SSE visible
18 Mar 11.4 11:21:00 10° NE 11:24:29 17° E 11:27:57 10° SE visible
18 Mar 8.7 12:59:43 10° NNE 13:05:04 87° WNW 13:10:23 10° SSW visible
19 Mar 11.7 10:58:58 10° ENE 11:00:31 11° E 11:02:03 10° E visible
19 Mar 9.2 12:36:09 10° NNE 12:41:27 63° ESE 12:46:43 10° S visible
20 Mar 10.0 12:12:42 10° NNE 12:17:45 42° E 12:22:46 10° S visible
21 Mar 10.7 11:49:25 10° NE 11:53:59 28° E 11:58:30 10° SSE visible
22 Mar 11.3 11:26:23 10° NE 11:30:07 19° E 11:33:50 10° SE visible
23 Mar 11.6 11:04:00 10° ENE 11:06:10 12° E 11:08:19 10° ESE visible
23 Mar 9.1 12:41:42 10° NNE 12:47:01 69° ESE 12:52:18 10° S visible
